SL-14 DEB

Satellite information

Favourite Embed

Satellite Type and Status

DEBRISIN ORBIT

Key statistics

Satellite SL-14 DEB at a glance.

Uptime

13777

Days in orbit

Revolutions

≈ 14.1

Per day

Orbit

LEO

Low Earth Orbit

Inclination

82.5

Latest

Satellite identification and parameters

Extended collection of information and parameters for SL-14 DEB.

Object identification

Identified? True

Debris? True

Object name: SL-14 DEB

International designator: 1987-068AR

Object number (NORAD): 25214

Object ID (CCSDS): 25214

Country: COMMONWEALTH OF INDEPENDENT STATES (CIS)

Current information (Y/N): Y

RCS size: SMALL

Orbital parameters

Period: 102.112 minutes

Inclination: 82.542 deg

SMA: 7236.762 km

Apoapsis: 860.76 km

Periapsis: 856.493 km

RAAN: 81.3364 deg

Eccentricy: 0.0002948

Argument of periapsis: 309.1267 deg

Mean anomaly: 113.6048 deg

Mean motion: 14.10218372 rev/day

Mean motion (dot): 0.00002665 rev/day2

B* drag term: 0.0014971 1/REarth

Two-line elements (TLE)

Creation date: May 6, 2025, 10:16 p.m.

Reference frame: TEME

Reference center: EARTH

Epoch: May 6, 2025, 8:16 p.m. UTC

TLE line 0: 0 SL-14 DEB

TLE line 1: 1 25214U 87068AR 25126.84481593 .00002665 00000-0 14971-2 0 9994

TLE line 2: 2 25214 82.5420 81.3364 0002948 309.1267 113.6048 14.10218372387531

Live tracking on map

Real-time ground track for satellite SL-14 DEB.

In-orbit conjunctions

A list of the most updated potential collisions computed for object SL-14 DEB.

Target Orbit TCA Probability of collision Miss distance Type
COSMOS 2251 DEB LEO 2024-12-20 12:59:58 0.0001018806 333.0 (m) DEBRIS
FENGYUN 1C DEB SSO 2024-11-10 14:09:51 0.0001734537 876.0 (m) DEBRIS
FENGYUN 1C DEB SSO 2024-11-10 01:18:34 0.0002870054 89.0 (m) DEBRIS

Associated space launch

Second generation soviet meteorological satellite

SL-14 DEB was lifted into orbit during the mission ‘Tsiklon-3 | Meteor-2 16’, on board a Tsiklon-3 space rocket.

The launch took place on Aug. 18, 1987, 2:27 a.m. from 32/1.

For more information about the launch, click the button.

Launch to space Tsiklon-3 | Meteor-2 16
Tsiklon-3 | Meteor-2 16

Agency: N/A

Status: Launch Successful

Launch date: Aug. 18, 1987, 2:27 a.m. UTC

Rocket: Tsiklon-3

Launch pad: 32/1

Location: Plesetsk Cosmodrome, Russian Federation

...

Latest news about this satellite

There are no fresh news available about this satellite. Check back as we update our databases every day.


Newsletter sign-up

Weekly statistics, charts and insights to help you stay on top of the space industry.